Hourly Weather Roundup
Issued by NWS Central Illinois

Home | Current Version | Previous Version | Text Only | Print | Product List | Glossary On
Versions: 1 2 3 4 5 6 7 8 9 10 11 12 13 14 15 16 17 18 19 20 21 22 23 24 25 26 27 28 29 30 31 32 33 34 35 36 37 38 39 40 41 42 43 44 45 46 47 48 49 50
000
NZUS43 KILX 060310
HWRILX

AREA WEATHER ROUNDUP
NATIONAL WEATHER SERVICE, LINCOLN IL
900 PM CST MON DEC 05 2016


CITY           SKY/WX    TMP DP  RH WIND       PRES   REMARKS
BLOOMINGTON    FOG       30  29  96 E7        29.91S VSB 1/2 WCI  23
CHAMPAIGN      PTCLDY    34  31  88 E8        29.91S WCI  27
DANVILLE       CLOUDY    33  32  94 E3        29.89F
DECATUR        MOCLDY    31  30  96 E5        29.89F FOG     WCI  26
EFFINGHAM      PTCLDY    36  36 100 E6        29.89F WCI  31
FLORA          CLOUDY    36  34  92 NE5       29.87F WCI  32
GALESBURG      CLOUDY    34  32  94 SE8       29.87F WCI  27
JACKSONVILLE   CLEAR     29  29  98 E9        29.87S FOG     WCI  21
LACON          CLOUDY    33  33  99 E3        29.91F FOG
LAWRENCEVILLE  CLOUDY    39  34  82 NE7       29.88F WCI  34
LITCHFIELD     CLOUDY    36  34  93 SE7       29.87S WCI  30
$$


CITY           SKY/WX    TMP DP  RH WIND       PRES   REMARKS
LINCOLN        CLOUDY    33  33 100 E6        29.90F FOG     WCI  27
MACOMB         CLOUDY    36  35  96 E9        29.89S WCI  29
MATTOON        PTCLDY    35  31  85 E8        29.88F WCI  29
MT CARMEL AP   CLOUDY    38  34  85 E7        29.87F WCI  33
OLNEY-NOBLE AP CLOUDY    36  36 100 NE6       29.87F WCI  31
PARIS          PTCLDY    34  32  94 E6        29.91S WCI  29
PEORIA         CLOUDY    36  34  92 E7        29.90F WCI  30
PONTIAC        FOG       33  33 100 NE12      29.93F VSB 1   WCI  24
RANTOUL        CLOUDY    35  34  94 E8        29.91F WCI  29
SPRINGFIELD    CLOUDY    34  32  92 E6        29.89S FOG     WCI  29
TAYLORVILLE    CLOUDY    34  33  96 E5        29.88S WCI  30
$$

...REGIONAL REPORTS...


CITY           SKY/WX    TMP DP  RH WIND       PRES   REMARKS
CHICAGO O`HARE CLOUDY    31  29  92 S10       29.97S FOG     WCI  22
KANKAKEE       CLEAR     30  29  96 CALM      29.95F FOG
MOLINE         CLOUDY    34  30  85 E12       29.89F WCI  25
MOUNT STERLING PTCLDY    32  32  99 E8        29.84F FOG     WCI  25
MOUNT VERNON   NOT AVBL
PITTSFIELD     MOCLDY    34  34  99 E5        29.85F FOG     WCI  30
QUINCY         CLOUDY    35  34  96 SE12      29.83F FOG     WCI  27
ROCKFORD       CLOUDY    31  29  92 S13       29.95F FOG     WCI  21
$$


CITY           SKY/WX    TMP DP  RH WIND       PRES   REMARKS
BURLINGTON     CLOUDY    35  34  96 SE10      29.85F WCI  27
CEDAR RAPIDS   CLOUDY    32  32 100 SE12      29.83S FOG     WCI  23
DES MOINES     CLOUDY    38  35  89 SE9       29.77S WCI  31
KIRKSVILLE     FOG       36  36 100 SE8       29.81S VSB 1/2 WCI  30
OTTUMWA        CLOUDY    37  33  85 SE15G24   29.80F WCI  28
ST LOUIS       MOCLDY    40  33  76 SE12      29.86R WCI  33
$$


CITY           SKY/WX    TMP DP  RH WIND       PRES   REMARKS
TERRE HAUTE    CLEAR     32  28  85 E5        29.91F WCI  27
EVANSVILLE     MOCLDY    42  35  76 E7        29.87F
INDIANAPOLIS   MOCLDY    36  31  82 E12       29.92F WCI  28
LAFAYETTE      PTCLDY    32  31  96 E8        29.93F WCI  25
MADISON        CLOUDY    32  30  92 SE10      29.89F FOG     WCI  24
MILWAUKEE      CLOUDY    35  32  88 S5        29.95F FOG     WCI  31
$$






USA.gov is the U.S. government's official web portal to all federal, state and local government web resources and services.